TimeEST,TemperatureF,Dew PointF,Humidity,Sea Level PressureIn,VisibilityMPH,Wind Direction,Wind SpeedMPH,Gust SpeedMPH,PrecipitationIn,Events,Conditions,WindDirDegrees,DateUTC
12:15 AM,41.0,26.6,57,30.19,10.0,South,4.6,-,N/A,,Clear,170,2011-11-13 05:15:00
12:35 AM,41.0,26.6,57,30.18,10.0,South,4.6,-,N/A,,Clear,170,2011-11-13 05:35:00
12:55 AM,41.0,26.6,57,30.17,10.0,South,4.6,-,N/A,,Clear,170,2011-11-13 05:55:00
1:15 AM,42.8,24.8,49,30.18,10.0,Calm,Calm,-,N/A,,Clear,0,2011-11-13 06:15:00
1:35 AM,42.8,24.8,49,30.18,10.0,West,3.5,-,N/A,,Clear,270,2011-11-13 06:35:00
1:55 AM,42.8,24.8,49,30.17,10.0,South,3.5,-,N/A,,Clear,190,2011-11-13 06:55:00
2:15 AM,42.8,23.0,46,30.16,10.0,Calm,Calm,-,N/A,,Clear,0,2011-11-13 07:15:00
2:35 AM,41.0,23.0,49,30.16,10.0,South,4.6,-,N/A,,Clear,180,2011-11-13 07:35:00
2:55 AM,42.8,23.0,46,30.16,10.0,Calm,Calm,-,N/A,,Clear,0,2011-11-13 07:55:00
3:15 AM,42.8,21.2,42,30.16,10.0,Calm,Calm,-,N/A,,Clear,0,2011-11-13 08:15:00
3:35 AM,41.0,23.0,49,30.14,10.0,SSE,3.5,-,N/A,,Clear,150,2011-11-13 08:35:00
3:55 AM,41.0,23.0,49,30.14,10.0,Calm,Calm,-,N/A,,Clear,0,2011-11-13 08:55:00
4:15 AM,41.0,23.0,49,30.14,10.0,Calm,Calm,-,N/A,,Clear,0,2011-11-13 09:15:00
4:35 AM,41.0,23.0,49,30.14,10.0,Calm,Calm,-,N/A,,Clear,0,2011-11-13 09:35:00
4:55 AM,42.8,21.2,42,30.15,10.0,Calm,Calm,-,N/A,,Clear,0,2011-11-13 09:55:00
5:15 AM,41.0,21.2,45,30.15,10.0,Calm,Calm,-,N/A,,Clear,0,2011-11-13 10:15:00
5:35 AM,41.0,23.0,49,30.15,10.0,Calm,Calm,-,N/A,,Clear,0,2011-11-13 10:35:00
6:15 AM,41.0,23.0,49,30.15,10.0,Calm,Calm,-,N/A,,Clear,0,2011-11-13 11:15:00
6:55 AM,41.0,23.0,49,30.16,10.0,Calm,Calm,-,N/A,,Clear,0,2011-11-13 11:55:00
7:15 AM,41.0,23.0,49,30.16,10.0,Calm,Calm,-,N/A,,Clear,0,2011-11-13 12:15:00
7:35 AM,39.2,23.0,52,30.16,10.0,SE,3.5,-,N/A,,Clear,140,2011-11-13 12:35:00
7:55 AM,41.0,24.8,53,30.16,10.0,Calm,Calm,-,N/A,,Clear,0,2011-11-13 12:55:00
8:15 AM,41.0,24.8,53,30.17,10.0,Calm,Calm,-,N/A,,Clear,0,2011-11-13 13:15:00
8:35 AM,42.8,26.6,53,30.17,10.0,Calm,Calm,-,N/A,,Clear,0,2011-11-13 13:35:00
8:55 AM,42.8,26.6,53,30.18,10.0,Calm,Calm,-,N/A,,Clear,0,2011-11-13 13:55:00
9:35 AM,46.4,26.6,46,30.17,10.0,Calm,Calm,-,N/A,,Clear,0,2011-11-13 14:35:00
9:55 AM,50.0,26.6,40,30.17,10.0,Calm,Calm,-,N/A,,Clear,0,2011-11-13 14:55:00
10:15 AM,51.8,24.8,35,30.17,10.0,Calm,Calm,-,N/A,,Clear,0,2011-11-13 15:15:00
10:35 AM,51.8,23.0,33,30.17,10.0,South,5.8,-,N/A,,Clear,170,2011-11-13 15:35:00
10:55 AM,51.8,23.0,33,30.16,10.0,SSE,5.8,-,N/A,,Clear,150,2011-11-13 15:55:00
11:15 AM,51.8,23.0,33,30.17,10.0,SE,4.6,-,N/A,,Clear,140,2011-11-13 16:15:00
11:35 AM,53.6,24.8,33,30.16,10.0,SSE,4.6,-,N/A,,Clear,150,2011-11-13 16:35:00
11:55 AM,53.6,24.8,33,30.15,10.0,South,3.5,-,N/A,,Clear,170,2011-11-13 16:55:00
12:15 PM,51.8,24.8,35,30.13,10.0,SSE,5.8,-,N/A,,Clear,150,2011-11-13 17:15:00
12:35 PM,50.0,24.8,37,30.13,10.0,SSE,6.9,-,N/A,,Clear,150,2011-11-13 17:35:00
12:55 PM,50.0,23.0,35,30.11,10.0,SSE,5.8,-,N/A,,Clear,160,2011-11-13 17:55:00
1:15 PM,51.8,21.2,30,30.11,10.0,SSE,5.8,-,N/A,,Clear,150,2011-11-13 18:15:00
1:35 PM,50.0,21.2,32,30.09,10.0,SSE,6.9,-,N/A,,Clear,160,2011-11-13 18:35:00
1:55 PM,50.0,21.2,32,30.08,10.0,South,5.8,-,N/A,,Clear,170,2011-11-13 18:55:00
2:15 PM,51.8,21.2,30,30.08,10.0,SSE,5.8,-,N/A,,Clear,150,2011-11-13 19:15:00
2:35 PM,51.8,21.2,30,30.08,10.0,South,6.9,-,N/A,,Clear,180,2011-11-13 19:35:00
2:55 PM,51.8,21.2,30,30.07,10.0,South,4.6,-,N/A,,Clear,170,2011-11-13 19:55:00
3:15 PM,51.8,23.0,33,30.07,10.0,South,5.8,-,N/A,,Clear,170,2011-11-13 20:15:00
3:35 PM,50.0,23.0,35,30.08,10.0,South,4.6,-,N/A,,Clear,180,2011-11-13 20:35:00
3:55 PM,50.0,26.6,40,30.08,10.0,SSE,5.8,-,N/A,,Clear,160,2011-11-13 20:55:00
4:15 PM,50.0,26.6,40,30.09,10.0,South,4.6,-,N/A,,Clear,180,2011-11-13 21:15:00
4:35 PM,48.2,26.6,43,30.09,10.0,Calm,Calm,-,N/A,,Clear,0,2011-11-13 21:35:00
4:55 PM,48.2,28.4,46,30.09,10.0,Calm,Calm,-,N/A,,Clear,0,2011-11-13 21:55:00
5:15 PM,46.4,28.4,50,30.11,10.0,Calm,Calm,-,N/A,,Clear,0,2011-11-13 22:15:00
5:35 PM,46.4,28.4,50,30.10,10.0,Calm,Calm,-,N/A,,Clear,0,2011-11-13 22:35:00
5:55 PM,46.4,30.2,53,30.11,10.0,Calm,Calm,-,N/A,,Clear,0,2011-11-13 22:55:00
6:15 PM,46.4,32.0,57,30.12,10.0,Calm,Calm,-,N/A,,Clear,0,2011-11-13 23:15:00
6:35 PM,44.6,32.0,61,30.11,10.0,Calm,Calm,-,N/A,,Clear,0,2011-11-13 23:35:00
6:55 PM,44.6,32.0,61,30.13,10.0,Calm,Calm,-,N/A,,Clear,0,2011-11-13 23:55:00
7:15 PM,44.6,35.6,71,30.13,10.0,Calm,Calm,-,N/A,,Clear,0,2011-11-14 00:15:00
7:35 PM,44.6,35.6,71,30.14,10.0,SE,3.5,-,N/A,,Clear,130,2011-11-14 00:35:00
7:55 PM,44.6,35.6,71,30.13,10.0,Calm,Calm,-,N/A,,Clear,0,2011-11-14 00:55:00
8:15 PM,46.4,35.6,66,30.13,10.0,SE,4.6,-,N/A,,Scattered Clouds,140,2011-11-14 01:15:00
8:35 PM,46.4,37.4,71,30.12,10.0,Calm,Calm,-,N/A,,Scattered Clouds,0,2011-11-14 01:35:00
8:55 PM,46.4,37.4,71,30.12,10.0,South,5.8,-,N/A,,Scattered Clouds,190,2011-11-14 01:55:00
9:15 PM,46.4,39.2,76,30.12,10.0,Calm,Calm,-,N/A,,Scattered Clouds,0,2011-11-14 02:15:00
9:35 PM,46.4,41.0,81,30.11,10.0,SSE,3.5,-,N/A,,Scattered Clouds,150,2011-11-14 02:35:00
9:55 PM,46.4,41.0,81,30.11,10.0,Calm,Calm,-,N/A,,Clear,0,2011-11-14 02:55:00
10:15 PM,46.4,41.0,81,30.12,10.0,South,3.5,-,N/A,,Scattered Clouds,170,2011-11-14 03:15:00
10:35 PM,46.4,41.0,81,30.11,10.0,Calm,Calm,-,N/A,,Scattered Clouds,0,2011-11-14 03:35:00
10:55 PM,48.2,42.8,82,30.11,10.0,SSE,3.5,-,N/A,,Scattered Clouds,150,2011-11-14 03:55:00
11:15 PM,50.0,42.8,76,30.10,10.0,South,4.6,-,N/A,,Clear,170,2011-11-14 04:15:00
11:35 PM,50.0,42.8,76,30.10,10.0,South,3.5,-,N/A,,Clear,170,2011-11-14 04:35:00
11:55 PM,50.0,42.8,76,30.10,10.0,South,5.8,-,N/A,,Scattered Clouds,170,2011-11-14 04:55:00